| time (UTC) | temp F | wind direction | speed knots | gust knots | rain 1hr in | rain 24hr in | rain mn in | humidity % | barometer mb |
| 20260510175850 | 59 | 85 | 3.5 | 9.6 | 0.00 | 0.09 | 0.00 | 32 | 1019.3 |
| 20260510175352 | 59 | 168 | 4.3 | 13.9 | 0.00 | 0.09 | 0.00 | 31 | 1019.2 |
| 20260510174850 | 59 | 231 | 4.3 | 13.9 | 0.00 | 0.09 | 0.00 | 33 | 1019.2 |
| 20260510174351 | 59 | 266 | 4.3 | 10.4 | 0.00 | 0.09 | 0.00 | 33 | 1019.2 |
| 20260510173852 | 60 | 252 | 2.6 | 9.6 | 0.00 | 0.09 | 0.00 | 32 | 1019.3 |
| 20260510173352 | 59 | 336 | 3.5 | 7.8 | 0.00 | 0.09 | 0.00 | 34 | 1019.2 |
| 20260510172852 | 58 | 66 | 2.6 | 7.8 | 0.00 | 0.09 | 0.00 | 33 | 1019.3 |
| 20260510172352 | 59 | 272 | 2.6 | 6.1 | 0.00 | 0.09 | 0.00 | 34 | 1019.2 |
| 20260510171850 | 59 | 290 | 3.5 | 7.8 | 0.00 | 0.09 | 0.00 | 33 | 1019.4 |
| 20260510171351 | 59 | 263 | 3.5 | 7.8 | 0.00 | 0.09 | 0.00 | 35 | 1019.4 |
| 20260510170850 | 59 | 308 | 1.7 | 7.8 | 0.00 | 0.09 | 0.00 | 37 | 1019.5 |
| 20260510170623 | 59 | 281 | 0.9 | 5.2 | 0.00 | 0.09 | 0.00 | 35 | 1019.5 |
| 20260510170512 | 58 | 56 | 0.9 | 5.2 | 0.00 | 0.09 | 0.00 | 33 | 1019.4 |
| 20260510165356 | 58 | 226 | 3.5 | 9.6 | 0.00 | 0.09 | 0.00 | 36 | 1019.6 |
| 20260510165351 | 58 | 264 | 2.6 | 8.7 | 0.00 | 0.09 | 0.00 | 36 | 1019.5 |
| 20260510164350 | 58 | 257 | 3.5 | 10.4 | 0.00 | 0.09 | 0.00 | 37 | 1019.5 |
| 20260510163850 | 58 | 250 | 3.5 | 10.4 | 0.00 | 0.09 | 0.00 | 36 | 1019.4 |
| 20260510163345 | 58 | 34 | 3.5 | 10.4 | 0.00 | 0.09 | 0.00 | 37 | 1019.3 |
| 20260510162838 | 57 | 274 | 4.3 | 11.3 | 0.00 | 0.09 | 0.00 | 34 | 1019.3 |
| 20260510162333 | 57 | 57 | 4.3 | 11.3 | 0.00 | 0.09 | 0.00 | 34 | 1019.4 |
| 20260510161827 | 57 | 23 | 3.5 | 8.7 | 0.00 | 0.09 | 0.00 | 36 | 1019.3 |
| 20260510161321 | 58 | 304 | 2.6 | 10.4 | 0.00 | 0.09 | 0.00 | 36 | 1019.2 |
| 20260510160815 | 58 | 300 | 2.6 | 10.4 | 0.00 | 0.09 | 0.00 | 35 | 1019.2 |
| 20260510160309 | 58 | 272 | 2.6 | 10.4 | 0.00 | 0.09 | 0.00 | 36 | 1019.2 |
| 20260510160036 | 57 | 234 | 3.5 | 10.4 | 0.00 | 0.09 | 0.00 | 38 | 1019.1 |
| 20260510155257 | 57 | 243 | 4.3 | 9.6 | 0.00 | 0.09 | 0.00 | 37 | 1019.2 |
| 20260510154751 | 57 | 306 | 2.6 | 9.6 | 0.00 | 0.09 | 0.00 | 37 | 1019.1 |
| 20260510154245 | 57 | 6 | 1.7 | 7.0 | 0.00 | 0.09 | 0.00 | 38 | 1019.1 |
| 20260510153739 | 57 | 297 | 2.6 | 7.8 | 0.00 | 0.09 | 0.00 | 39 | 1019.1 |
| 20260510153232 | 56 | 308 | 3.5 | 8.7 | 0.00 | 0.09 | 0.00 | 38 | 1019.0 |
| 20260510152727 | 56 | 331 | 2.6 | 8.7 | 0.00 | 0.09 | 0.00 | 40 | 1018.9 |
| 20260510152224 | 57 | 28 | 2.6 | 7.8 | 0.00 | 0.09 | 0.00 | 38 | 1018.9 |
| 20260510151955 | 57 | 338 | 1.7 | 7.0 | 0.00 | 0.09 | 0.00 | 40 | 1018.9 |
| 20260510151455 | 57 | 311 | 0.9 | 5.2 | 0.00 | 0.09 | 0.00 | 43 | 1018.9 |
| 20260510150724 | 56 | 210 | 1.7 | 8.7 | 0.00 | 0.09 | 0.00 | 43 | 1018.9 |
| 20260510150223 | 55 | 82 | 1.7 | 8.7 | 0.00 | 0.09 | 0.00 | 45 | 1018.8 |
| 20260510145721 | 55 | 245 | 1.7 | 5.2 | 0.00 | 0.09 | 0.00 | 42 | 1018.7 |
| 20260510145218 | 54 | 72 | 0.9 | 4.3 | 0.00 | 0.09 | 0.00 | 45 | 1018.7 |
| 20260510144950 | 54 | 252 | 1.7 | 6.1 | 0.00 | 0.09 | 0.00 | 45 | 1018.6 |
| 20260510144451 | 54 | 120 | 1.7 | 6.1 | 0.00 | 0.09 | 0.00 | 44 | 1018.6 |
| 20260510143719 | 54 | 263 | 0.9 | 5.2 | 0.00 | 0.09 | 0.00 | 46 | 1018.6 |
| 20260510143218 | 53 | 127 | 1.7 | 5.2 | 0.00 | 0.09 | 0.00 | 46 | 1018.6 |
| 20260510142719 | 54 | 221 | 0.9 | 3.5 | 0.00 | 0.09 | 0.00 | 46 | 1018.6 |
| 20260510142219 | 54 | 240 | 1.7 | 5.2 | 0.00 | 0.09 | 0.00 | 45 | 1018.6 |
| 20260510141717 | 53 | 100 | 1.7 | 5.2 | 0.00 | 0.09 | 0.00 | 48 | 1018.6 |
| 20260510141449 | 53 | 53 | 0.9 | 4.3 | 0.00 | 0.09 | 0.00 | 46 | 1018.6 |
| 20260510140717 | 53 | 315 | 0.9 | 3.5 | 0.00 | 0.09 | 0.00 | 49 | 1018.5 |
| 20260510140216 | 53 | 340 | 0.0 | 3.5 | 0.00 | 0.09 | 0.00 | 47 | 1018.6 |
| 20260510135712 | 53 | 347 | 0.9 | 7.0 | 0.00 | 0.09 | 0.00 | 48 | 1018.6 |
| 20260510135212 | 52 | 300 | 0.9 | 7.0 | 0.00 | 0.09 | 0.00 | 48 | 1018.7 |
| 20260510134711 | 52 | 65 | 0.9 | 6.1 | 0.00 | 0.09 | 0.00 | 48 | 1018.6 |
| 20260510134439 | 51 | 22 | 2.6 | 6.1 | 0.00 | 0.09 | 0.00 | 51 | 1018.6 |
| 20260510133707 | 51 | 242 | 2.6 | 6.1 | 0.00 | 0.09 | 0.00 | 50 | 1018.5 |
| 20260510133437 | 51 | 302 | 1.7 | 4.3 | 0.00 | 0.09 | 0.00 | 51 | 1018.4 |
| 20260510132706 | 50 | 314 | 1.7 | 4.3 | 0.00 | 0.09 | 0.00 | 51 | 1018.3 |
| 20260510132206 | 50 | 291 | 1.7 | 5.2 | 0.00 | 0.09 | 0.00 | 52 | 1018.3 |
| 20260510131706 | 50 | 255 | 1.7 | 5.2 | 0.00 | 0.09 | 0.00 | 52 | 1018.2 |
| 20260510131207 | 50 | 316 | 1.7 | 4.3 | 0.00 | 0.09 | 0.00 | 51 | 1018.1 |
| 20260510130706 | 50 | 277 | 1.7 | 5.2 | 0.00 | 0.09 | 0.00 | 51 | 1018.1 |
| 20260510130206 | 49 | 29 | 1.7 | 7.0 | 0.00 | 0.09 | 0.00 | 52 | 1018.1 |
| 20260510125704 | 49 | 26 | 1.7 | 7.0 | 0.00 | 0.09 | 0.00 | 54 | 1018.0 |
| 20260510125204 | 49 | 280 | 2.6 | 5.2 | 0.00 | 0.09 | 0.00 | 54 | 1018.0 |
| 20260510124703 | 49 | 325 | 2.6 | 6.1 | 0.00 | 0.09 | 0.00 | 53 | 1018.0 |
| 20260510124202 | 49 | 352 | 2.6 | 8.7 | 0.00 | 0.09 | 0.00 | 55 | 1017.9 |
| 20260510123703 | 49 | 323 | 1.7 | 8.7 | 0.00 | 0.09 | 0.00 | 57 | 1017.9 |
| 20260510123205 | 49 | 333 | 1.7 | 5.2 | 0.00 | 0.09 | 0.00 | 58 | 1017.9 |
| 20260510122659 | 49 | 294 | 0.9 | 5.2 | 0.00 | 0.09 | 0.00 | 58 | 1017.8 |
| 20260510122153 | 48 | 283 | 1.7 | 3.5 | 0.00 | 0.09 | 0.00 | 62 | 1017.8 |
| 20260510121919 | 47 | 300 | 1.7 | 4.3 | 0.00 | 0.09 | 0.00 | 62 | 1017.8 |
| 20260510121140 | 47 | 273 | 1.7 | 4.3 | 0.00 | 0.09 | 0.00 | 61 | 1017.8 |
| 20260510120635 | 47 | 347 | 1.7 | 4.3 | 0.00 | 0.09 | 0.00 | 62 | 1017.7 |
| 20260510120129 | 47 | 338 | 1.7 | 3.5 | 0.00 | 0.09 | 0.00 | 63 | 1017.4 |
| 20260510115854 | 46 | 292 | 1.7 | 4.3 | 0.00 | 0.09 | 0.00 | 63 | 1017.4 |
| 20260510115117 | 46 | 288 | 1.7 | 5.2 | 0.00 | 0.09 | 0.00 | 62 | 1017.3 |
| 20260510114611 | 46 | 274 | 0.9 | 5.2 | 0.00 | 0.09 | 0.00 | 63 | 1017.3 |
| 20260510114336 | 46 | 299 | 1.7 | 5.2 | 0.00 | 0.09 | 0.00 | 62 | 1017.2 |
| 20260510113559 | 45 | 237 | 1.7 | 5.2 | 0.00 | 0.09 | 0.00 | 63 | 1017.1 |
| 20260510113054 | 45 | 314 | 1.7 | 5.2 | 0.00 | 0.09 | 0.00 | 64 | 1016.9 |
| 20260510112547 | 44 | 298 | 1.7 | 5.2 | 0.00 | 0.09 | 0.00 | 65 | 1016.9 |
| 20260510112042 | 44 | 277 | 0.9 | 5.2 | 0.00 | 0.09 | 0.00 | 66 | 1016.8 |
| 20260510111535 | 44 | 305 | 0.9 | 4.3 | 0.00 | 0.09 | 0.00 | 68 | 1016.8 |
| 20260510111029 | 44 | 295 | 0.9 | 4.3 | 0.00 | 0.09 | 0.00 | 68 | 1016.8 |
| 20260510110524 | 43 | 306 | 0.9 | 3.5 | 0.00 | 0.09 | 0.00 | 70 | 1016.7 |
| 20260510110017 | 42 | 293 | 0.0 | 2.6 | 0.00 | 0.09 | 0.00 | 72 | 1016.7 |
| 20260510105511 | 42 | 93 | 0.0 | 0.9 | 0.00 | 0.09 | 0.00 | 77 | 1016.7 |
| 20260510105237 | 41 | 93 | 0.0 | 0.0 | 0.00 | 0.09 | 0.00 | 79 | 1016.6 |
| 20260510104500 | 40 | 91 | 0.0 | 0.0 | 0.00 | 0.09 | 0.00 | 80 | 1016.6 |
| 20260510104224 | 40 | 91 | 0.0 | 0.0 | 0.00 | 0.09 | 0.00 | 80 | 1016.5 |
| 20260510103447 | 39 | 91 | 0.0 | 0.0 | 0.00 | 0.09 | 0.00 | 80 | 1016.4 |
| 20260510102942 | 39 | 91 | 0.0 | 0.0 | 0.00 | 0.09 | 0.00 | 80 | 1016.3 |
| 20260510102706 | 39 | 91 | 0.0 | 0.0 | 0.00 | 0.09 | 0.00 | 80 | 1016.3 |
| 20260510101929 | 39 | 91 | 0.0 | 0.0 | 0.00 | 0.09 | 0.00 | 80 | 1016.2 |
| 20260510101654 | 40 | 91 | 0.0 | 0.0 | 0.00 | 0.09 | 0.00 | 80 | 1016.2 |
| 20260510100917 | 40 | 91 | 0.0 | 0.0 | 0.00 | 0.09 | 0.00 | 79 | 1016.0 |
| 20260510100411 | 40 | 91 | 0.0 | 0.0 | 0.00 | 0.09 | 0.00 | 78 | 1016.0 |
| 20260510095905 | 40 | 93 | 0.0 | 0.9 | 0.00 | 0.09 | 0.00 | 78 | 1015.8 |
| 20260510095359 | 40 | 93 | 0.0 | 0.9 | 0.00 | 0.09 | 0.00 | 78 | 1015.8 |
| 20260510095125 | 40 | 4 | 0.0 | 0.0 | 0.00 | 0.09 | 0.00 | 78 | 1015.9 |
| 20260510094348 | 40 | 4 | 0.0 | 0.0 | 0.00 | 0.09 | 0.00 | 77 | 1015.8 |
| 20260510093841 | 41 | 3 | 0.0 | 0.0 | 0.00 | 0.09 | 0.00 | 77 | 1015.8 |
| 20260510093335 | 41 | 4 | 0.0 | 0.0 | 0.00 | 0.09 | 0.00 | 76 | 1015.8 |
| 20260510092830 | 41 | 3 | 0.0 | 0.0 | 0.00 | 0.09 | 0.00 | 76 | 1015.7 |
| 20260510092324 | 41 | 3 | 0.0 | 0.0 | 0.00 | 0.09 | 0.00 | 76 | 1015.7 |
| 20260510091817 | 41 | 3 | 0.0 | 0.0 | 0.00 | 0.09 | 0.00 | 75 | 1015.6 |
| 20260510091311 | 41 | 3 | 0.0 | 0.0 | 0.00 | 0.09 | 0.00 | 75 | 1015.3 |
| 20260510090805 | 42 | 3 | 0.0 | 0.0 | 0.00 | 0.09 | 0.00 | 75 | 1015.2 |
| 20260510090259 | 42 | 3 | 0.0 | 0.0 | 0.00 | 0.09 | 0.00 | 75 | 1015.0 |
| 20260510085753 | 42 | 3 | 0.0 | 0.0 | 0.00 | 0.09 | 0.00 | 74 | 1014.8 |
| 20260510085247 | 42 | 3 | 0.0 | 0.0 | 0.00 | 0.09 | 0.00 | 73 | 1014.8 |
| 20260510084741 | 43 | 3 | 0.0 | 0.0 | 0.00 | 0.09 | 0.00 | 72 | 1014.6 |
| 20260510084236 | 43 | 3 | 0.0 | 0.0 | 0.00 | 0.09 | 0.00 | 73 | 1014.5 |
| 20260510083729 | 43 | 3 | 0.0 | 0.9 | 0.00 | 0.09 | 0.00 | 71 | 1014.4 |
| 20260510083455 | 44 | 3 | 0.0 | 0.0 | 0.00 | 0.09 | 0.00 | 71 | 1014.3 |
| 20260510082717 | 44 | 4 | 0.0 | 2.6 | 0.00 | 0.09 | 0.00 | 71 | 1014.2 |
| 20260510082211 | 44 | 3 | 0.9 | 2.6 | 0.00 | 0.09 | 0.00 | 71 | 1014.2 |
| 20260510081705 | 44 | 8 | 0.0 | 2.6 | 0.00 | 0.09 | 0.00 | 70 | 1014.2 |
| 20260510081159 | 44 | 338 | 0.0 | 2.6 | 0.00 | 0.09 | 0.00 | 70 | 1014.0 |
| 20260510080653 | 45 | 34 | 0.0 | 2.6 | 0.00 | 0.09 | 0.00 | 70 | 1013.9 |
| 20260510080147 | 45 | 60 | 0.0 | 2.6 | 0.00 | 0.09 | 0.00 | 70 | 1013.8 |
| 20260510075641 | 45 | 124 | 0.0 | 3.5 | 0.00 | 0.09 | 0.00 | 70 | 1013.6 |
| 20260510075135 | 45 | 64 | 0.0 | 3.5 | 0.00 | 0.09 | 0.00 | 70 | 1013.5 |
| 20260510074629 | 46 | 9 | 0.0 | 2.6 | 0.00 | 0.09 | 0.00 | 70 | 1013.4 |
| 20260510074123 | 46 | 29 | 0.0 | 2.6 | 0.00 | 0.09 | 0.00 | 70 | 1013.3 |
| 20260510073617 | 46 | 27 | 0.0 | 3.5 | 0.00 | 0.09 | 0.00 | 70 | 1013.2 |
| 20260510073111 | 46 | 85 | 0.0 | 3.5 | 0.00 | 0.09 | 0.00 | 69 | 1013.1 |
| 20260510072605 | 46 | 8 | 0.0 | 2.6 | 0.00 | 0.09 | 0.00 | 69 | 1013.0 |
| 20260510072059 | 47 | 358 | 0.0 | 1.7 | 0.00 | 0.09 | 0.00 | 69 | 1013.0 |
| 20260510071554 | 47 | 34 | 0.0 | 1.7 | 0.00 | 0.09 | 0.00 | 69 | 1012.9 |
| 20260510071047 | 48 | 34 | 0.0 | 1.7 | 0.00 | 0.09 | 0.00 | 68 | 1012.9 |
| 20260510070541 | 48 | 64 | 0.9 | 4.3 | 0.00 | 0.09 | 0.00 | 68 | 1012.8 |
| 20260510070035 | 48 | 55 | 1.7 | 4.3 | 0.00 | 0.09 | 0.00 | 67 | 1012.8 |
| 20260510065529 | 49 | 71 | 1.7 | 6.1 | 0.00 | 0.09 | 0.00 | 67 | 1012.8 |
| 20260510065023 | 49 | 65 | 1.7 | 6.1 | 0.00 | 0.09 | 0.00 | 66 | 1012.7 |
| 20260510064517 | 49 | 45 | 1.7 | 6.1 | 0.00 | 0.09 | 0.00 | 66 | 1012.7 |
| 20260510064012 | 49 | 53 | 0.9 | 4.3 | 0.00 | 0.09 | 0.00 | 67 | 1012.6 |
| 20260510063505 | 48 | 63 | 0.9 | 4.3 | 0.00 | 0.09 | 0.00 | 68 | 1012.6 |
| 20260510063000 | 48 | 15 | 0.9 | 7.0 | 0.00 | 0.09 | 0.00 | 68 | 1012.4 |
| 20260510062453 | 48 | 43 | 0.0 | 7.0 | 0.00 | 0.09 | 0.00 | 69 | 1012.4 |
| 20260510062218 | 48 | 174 | 0.0 | 0.9 | 0.00 | 0.09 | 0.00 | 70 | 1012.3 |
| 20260510061441 | 48 | 354 | 0.0 | 0.0 | 0.00 | 0.09 | 0.00 | 69 | 1012.2 |
| 20260510060935 | 48 | 353 | 0.0 | 0.0 | 0.00 | 0.09 | 0.00 | 69 | 1012.2 |
| 20260510060430 | 49 | 353 | 0.0 | 0.0 | 0.00 | 0.09 | 0.00 | 69 | 1012.1 |
| 20260510055923 | 49 | 353 | 0.0 | 0.0 | 0.00 | 0.09 | 0.00 | 69 | 1012.1 |
| 20260510055417 | 49 | 353 | 0.0 | 0.0 | 0.00 | 0.09 | 0.00 | 68 | 1012.0 |
| 20260510055142 | 49 | 353 | 0.0 | 0.0 | 0.00 | 0.09 | 0.00 | 68 | 1012.0 |
| 20260510054405 | 49 | 353 | 0.0 | 0.0 | 0.00 | 0.09 | 0.00 | 67 | 1011.9 |
| 20260510053859 | 50 | 353 | 0.0 | 0.0 | 0.00 | 0.09 | 0.00 | 66 | 1011.9 |
| 20260510053353 | 50 | 353 | 0.0 | 0.9 | 0.00 | 0.09 | 0.00 | 65 | 1011.8 |
| 20260510052847 | 51 | 354 | 0.0 | 0.9 | 0.00 | 0.09 | 0.00 | 65 | 1011.6 |
| 20260510052338 | 51 | 354 | 0.0 | 0.9 | 0.00 | 0.09 | 0.00 | 64 | 1011.5 |
| 20260510051833 | 51 | 354 | 0.0 | 0.9 | 0.00 | 0.09 | 0.00 | 64 | 1011.4 |
| 20260510051327 | 52 | 356 | 0.9 | 3.5 | 0.00 | 0.09 | 0.00 | 63 | 1011.4 |
| 20260510050820 | 52 | 356 | 0.9 | 3.5 | 0.00 | 0.09 | 0.00 | 63 | 1011.4 |
| 20260510050315 | 52 | 28 | 0.0 | 1.7 | 0.00 | 0.09 | 0.00 | 63 | 1011.3 |
| 20260510050041 | 52 | 334 | 0.0 | 1.7 | 0.00 | 0.09 | 0.00 | 62 | 1011.2 |
| 20260510045308 | 53 | 3 | 0.0 | 2.6 | 0.00 | 0.09 | 0.00 | 62 | 1011.2 |
| 20260510044752 | 53 | 28 | 0.9 | 4.3 | 0.00 | 0.09 | 0.00 | 61 | 1011.1 |
| 20260510044246 | 53 | 92 | 0.9 | 4.3 | 0.00 | 0.09 | 0.00 | 61 | 1011.0 |
| 20260510043743 | 53 | 13 | 0.0 | 4.3 | 0.00 | 0.09 | 0.00 | 61 | 1010.9 |
| 20260510043738 | 54 | 6 | 0.9 | 4.3 | 0.00 | 0.09 | 0.00 | 60 | 1010.9 |
| 20260510042728 | 54 | 18 | 0.9 | 4.3 | 0.00 | 0.09 | 0.00 | 60 | 1010.8 |
| 20260510042222 | 54 | 51 | 0.9 | 5.2 | 0.00 | 0.09 | 0.00 | 59 | 1010.9 |
| 20260510041716 | 54 | 9 | 0.9 | 5.2 | 0.00 | 0.09 | 0.00 | 59 | 1010.7 |
| 20260510041211 | 54 | 32 | 0.9 | 5.2 | 0.00 | 0.09 | 0.00 | 59 | 1010.6 |
| 20260510040705 | 55 | 44 | 1.7 | 6.1 | 0.00 | 0.09 | 0.00 | 59 | 1010.5 |
| 20260510040158 | 55 | 39 | 1.7 | 6.1 | 0.00 | 0.09 | 0.00 | 59 | 1010.2 |
| 20260510035653 | 55 | 4 | 2.6 | 9.6 | 0.00 | 0.09 | 0.09 | 58 | 1010.4 |
| 20260510035145 | 56 | 6 | 2.6 | 9.6 | 0.00 | 0.09 | 0.09 | 58 | 1010.2 |
| 20260510034640 | 56 | 15 | 1.7 | 8.7 | 0.00 | 0.09 | 0.09 | 58 | 1010.2 |
| 20260510034133 | 56 | 69 | 1.7 | 8.7 | 0.00 | 0.09 | 0.09 | 58 | 1010.1 |
| 20260510033627 | 57 | 12 | 2.6 | 7.0 | 0.00 | 0.09 | 0.09 | 58 | 1009.9 |
| 20260510033122 | 57 | 35 | 3.5 | 11.3 | 0.00 | 0.09 | 0.09 | 58 | 1009.9 |
| 20260510032616 | 58 | 51 | 4.3 | 11.3 | 0.00 | 0.09 | 0.09 | 57 | 1009.8 |
| 20260510032109 | 59 | 24 | 5.2 | 11.3 | 0.00 | 0.09 | 0.09 | 55 | 1009.6 |
| 20260510031057 | 60 | 5 | 2.6 | 7.8 | 0.00 | 0.09 | 0.09 | 49 | 1009.3 |
| 20260510030553 | 60 | 282 | 2.6 | 7.0 | 0.00 | 0.09 | 0.09 | 48 | 1009.2 |
| 20260510030547 | 60 | 321 | 2.6 | 9.6 | 0.00 | 0.09 | 0.09 | 48 | 1009.2 |
| 20260510025539 | 60 | 45 | 4.3 | 12.2 | 0.00 | 0.09 | 0.09 | 48 | 1009.1 |
| 20260510025033 | 61 | 292 | 4.3 | 12.2 | 0.00 | 0.09 | 0.09 | 48 | 1009.0 |
| 20260510024528 | 61 | 312 | 2.6 | 9.6 | 0.00 | 0.09 | 0.09 | 49 | 1009.0 |
| 20260510024022 | 61 | 23 | 3.5 | 10.4 | 0.00 | 0.09 | 0.09 | 49 | 1008.9 |
| 20260510023515 | 61 | 262 | 4.3 | 13.0 | 0.00 | 0.09 | 0.09 | 49 | 1008.8 |
| 20260510023010 | 62 | 30 | 4.3 | 13.0 | 0.00 | 0.09 | 0.09 | 48 | 1008.7 |
| 20260510022504 | 62 | 30 | 3.5 | 11.3 | 0.00 | 0.09 | 0.09 | 49 | 1008.6 |
| 20260510021959 | 62 | 307 | 2.6 | 10.4 | 0.00 | 0.09 | 0.09 | 50 | 1008.2 |
| 20260510021452 | 62 | 307 | 1.7 | 6.1 | 0.00 | 0.09 | 0.09 | 52 | 1008.0 |
| 20260510020946 | 62 | 290 | 0.9 | 5.2 | 0.00 | 0.09 | 0.09 | 54 | 1008.0 |
| 20260510020440 | 61 | 336 | 0.9 | 3.5 | 0.00 | 0.09 | 0.09 | 55 | 1007.8 |
| 20260510015934 | 61 | 276 | 0.0 | 0.9 | 0.00 | 0.09 | 0.09 | 55 | 1007.6 |
| 20260510015658 | 61 | 281 | 0.0 | 0.9 | 0.00 | 0.09 | 0.09 | 54 | 1007.3 |
| 20260510014921 | 62 | 281 | 0.0 | 0.9 | 0.00 | 0.09 | 0.09 | 53 | 1007.2 |
| 20260510014416 | 62 | 278 | 0.0 | 0.9 | 0.00 | 0.09 | 0.09 | 53 | 1007.1 |
| 20260510013909 | 62 | 278 | 0.0 | 0.9 | 0.00 | 0.09 | 0.09 | 52 | 1007.0 |
| 20260510013404 | 63 | 279 | 0.9 | 3.5 | 0.00 | 0.09 | 0.09 | 51 | 1006.9 |
| 20260510012858 | 63 | 277 | 0.9 | 3.5 | 0.00 | 0.09 | 0.09 | 51 | 1006.7 |
| 20260510012352 | 63 | 342 | 0.0 | 0.9 | 0.00 | 0.09 | 0.09 | 51 | 1006.5 |
| 20260510012116 | 63 | 347 | 0.0 | 0.9 | 0.00 | 0.09 | 0.09 | 49 | 1006.3 |
| 20260510011339 | 64 | 24 | 0.0 | 2.6 | 0.00 | 0.09 | 0.09 | 49 | 1006.2 |
| 20260510010834 | 64 | 301 | 0.0 | 2.6 | 0.00 | 0.09 | 0.09 | 48 | 1006.2 |
| 20260510010328 | 65 | 301 | 0.9 | 2.6 | 0.00 | 0.09 | 0.09 | 47 | 1006.1 |
| 20260510005826 | 65 | 288 | 0.9 | 2.6 | 0.00 | 0.09 | 0.09 | 46 | 1006.0 |
| 20260510005311 | 65 | 286 | 1.7 | 6.1 | 0.00 | 0.09 | 0.09 | 46 | 1005.8 |
| 20260510004806 | 66 | 267 | 2.6 | 6.1 | 0.00 | 0.09 | 0.09 | 45 | 1005.9 |
| 20260510004300 | 66 | 285 | 3.5 | 7.8 | 0.00 | 0.09 | 0.09 | 45 | 1005.7 |
| 20260510003754 | 66 | 300 | 2.6 | 9.6 | 0.00 | 0.09 | 0.09 | 44 | 1005.6 |
| 20260510003248 | 66 | 278 | 2.6 | 9.6 | 0.00 | 0.09 | 0.09 | 44 | 1005.6 |
| 20260510003012 | 67 | 231 | 2.6 | 7.8 | 0.00 | 0.09 | 0.09 | 44 | 1005.5 |
| 20260510002236 | 67 | 298 | 3.5 | 9.6 | 0.00 | 0.09 | 0.09 | 43 | 1005.5 |
| 20260510001729 | 67 | 281 | 2.6 | 9.6 | 0.00 | 0.09 | 0.09 | 43 | 1005.4 |
| 20260510001224 | 67 | 295 | 3.5 | 9.6 | 0.00 | 0.09 | 0.09 | 42 | 1005.3 |
| 20260510000718 | 67 | 260 | 4.3 | 9.6 | 0.00 | 0.09 | 0.09 | 42 | 1005.2 |
| 20260510000213 | 68 | 270 | 5.2 | 12.2 | 0.00 | 0.09 | 0.09 | 41 | 1005.2 |
| 20260510000208 | 68 | 283 | 5.2 | 13.9 | 0.00 | 0.09 | 0.09 | 41 | 1005.2 |
| 20260509235200 | 68 | 264 | 5.2 | 13.9 | 0.00 | 0.09 | 0.09 | 41 | 1005.0 |
| 20260509234654 | 68 | 302 | 5.2 | 12.2 | 0.00 | 0.09 | 0.09 | 40 | 1005.0 |
| 20260509234147 | 68 | 231 | 5.2 | 12.2 | 0.00 | 0.09 | 0.09 | 40 | 1005.0 |
| 20260509233641 | 69 | 288 | 5.2 | 10.4 | 0.00 | 0.09 | 0.09 | 40 | 1005.0 |
| 20260509233136 | 69 | 288 | 6.1 | 15.6 | 0.00 | 0.09 | 0.09 | 39 | 1005.2 |
| 20260509232636 | 69 | 281 | 6.1 | 15.6 | 0.00 | 0.09 | 0.09 | 39 | 1005.0 |
| 20260509232133 | 69 | 294 | 6.1 | 13.9 | 0.00 | 0.09 | 0.09 | 39 | 1004.9 |
| 20260509231633 | 69 | 293 | 7.0 | 16.5 | 0.00 | 0.09 | 0.09 | 38 | 1004.9 |
| 20260509231133 | 69 | 300 | 7.8 | 19.1 | 0.00 | 0.09 | 0.09 | 38 | 1004.9 |
| 20260509230630 | 70 | 322 | 7.0 | 19.1 | 0.00 | 0.09 | 0.09 | 37 | 1004.9 |
| 20260509230131 | 70 | 309 | 6.1 | 14.8 | 0.00 | 0.09 | 0.09 | 37 | 1004.8 |
| 20260509225637 | 70 | 295 | 7.8 | 18.2 | 0.00 | 0.09 | 0.09 | 38 | 1004.7 |
| 20260509225130 | 70 | 230 | 8.7 | 20.0 | 0.00 | 0.09 | 0.09 | 38 | 1004.5 |
| 20260509224629 | 70 | 237 | 7.8 | 23.5 | 0.00 | 0.09 | 0.09 | 37 | 1004.3 |
| 20260509224128 | 69 | 307 | 7.8 | 23.5 | 0.00 | 0.09 | 0.09 | 38 | 1004.2 |
| 20260509223628 | 69 | 309 | 8.7 | 18.2 | 0.00 | 0.09 | 0.09 | 38 | 1004.1 |
| 20260509223126 | 70 | 302 | 7.0 | 16.5 | 0.00 | 0.09 | 0.09 | 38 | 1004.1 |
| 20260509222628 | 70 | 255 | 6.1 | 20.0 | 0.00 | 0.09 | 0.09 | 38 | 1004.1 |
| 20260509222130 | 70 | 233 | 10.4 | 23.5 | 0.00 | 0.09 | 0.09 | 37 | 1003.7 |
| 20260509222126 | 70 | 250 | 9.6 | 20.0 | 0.00 | 0.09 | 0.09 | 38 | 1003.8 |
| 20260509221126 | 71 | 240 | 9.6 | 23.5 | 0.00 | 0.09 | 0.09 | 37 | 1003.7 |
| 20260509220623 | 71 | 263 | 7.8 | 18.2 | 0.00 | 0.09 | 0.09 | 39 | 1003.6 |
| 20260509220123 | 71 | 248 | 6.1 | 16.5 | 0.00 | 0.09 | 0.09 | 38 | 1003.7 |
| 20260509215618 | 71 | 269 | 7.8 | 20.9 | 0.00 | 0.09 | 0.09 | 38 | 1003.6 |
| 20260509215112 | 70 | 140 | 9.6 | 20.9 | 0.00 | 0.09 | 0.09 | 38 | 1003.5 |
| 20260509214606 | 70 | 275 | 9.6 | 26.9 | 0.00 | 0.09 | 0.09 | 38 | 1003.4 |
| 20260509214100 | 70 | 291 | 8.7 | 26.9 | 0.00 | 0.09 | 0.09 | 37 | 1003.4 |
| 20260509213553 | 70 | 286 | 7.8 | 19.1 | 0.00 | 0.09 | 0.09 | 39 | 1003.3 |
| 20260509213048 | 70 | 265 | 7.8 | 16.5 | 0.00 | 0.09 | 0.09 | 40 | 1003.2 |
| 20260509212813 | 70 | 316 | 7.8 | 15.6 | 0.00 | 0.09 | 0.09 | 40 | 1003.1 |
| 20260509212037 | 70 | 241 | 7.8 | 17.4 | 0.00 | 0.09 | 0.09 | 39 | 1003.3 |
| 20260509212032 | 70 | 257 | 6.1 | 17.4 | 0.00 | 0.09 | 0.09 | 40 | 1003.3 |
| 20260509211023 | 70 | 268 | 5.2 | 11.3 | 0.00 | 0.09 | 0.09 | 41 | 1003.4 |
| 20260509210517 | 70 | 225 | 6.1 | 13.0 | 0.00 | 0.09 | 0.09 | 43 | 1003.4 |
| 20260509210012 | 69 | 251 | 6.1 | 13.0 | 0.00 | 0.09 | 0.09 | 45 | 1003.5 |
| 20260509205506 | 69 | 301 | 5.2 | 13.0 | 0.00 | 0.09 | 0.09 | 49 | 1003.4 |
| 20260509205000 | 69 | 219 | 4.3 | 13.0 | 0.00 | 0.09 | 0.09 | 57 | 1003.5 |
| 20260509204724 | 68 | 317 | 4.3 | 13.0 | 0.00 | 0.09 | 0.09 | 59 | 1003.6 |
| 20260509203948 | 68 | 330 | 3.5 | 9.6 | 0.00 | 0.09 | 0.09 | 60 | 1003.7 |
| 20260509203441 | 67 | 295 | 3.5 | 8.7 | 0.00 | 0.09 | 0.09 | 63 | 1003.7 |
| 20260509202939 | 67 | 281 | 3.5 | 9.6 | 0.00 | 0.09 | 0.09 | 64 | 1003.8 |
| 20260509202440 | 66 | 241 | 3.5 | 9.6 | 0.00 | 0.09 | 0.09 | 62 | 1003.9 |
| 20260509201940 | 66 | 255 | 2.6 | 7.0 | 0.07 | 0.09 | 0.09 | 63 | 1004.0 |
| 20260509201437 | 65 | 289 | 2.6 | 11.3 | 0.08 | 0.09 | 0.09 | 62 | 1004.1 |
| 20260509200937 | 65 | 246 | 2.6 | 11.3 | 0.08 | 0.09 | 0.09 | 62 | 1004.1 |
| 20260509200438 | 64 | 231 | 2.6 | 7.0 | 0.08 | 0.09 | 0.09 | 65 | 1004.0 |
| 20260509195938 | 62 | 249 | 1.7 | 6.1 | 0.08 | 0.09 | 0.09 | 72 | 1004.0 |
| 20260509195438 | 62 | 335 | 2.6 | 8.7 | 0.08 | 0.09 | 0.09 | 74 | 1004.0 |
| 20260509194936 | 61 | 268 | 2.6 | 8.7 | 0.08 | 0.09 | 0.09 | 74 | 1004.1 |
| 20260509194437 | 60 | 270 | 2.6 | 7.8 | 0.09 | 0.09 | 0.09 | 75 | 1004.1 |
| 20260509193936 | 58 | 233 | 2.6 | 7.8 | 0.09 | 0.09 | 0.09 | 76 | 1004.2 |
| 20260509193437 | 57 | 293 | 1.7 | 6.1 | 0.09 | 0.09 | 0.09 | 78 | 1004.2 |
| 20260509192937 | 57 | 268 | 5.2 | 20.0 | 0.09 | 0.09 | 0.09 | 76 | 1004.3 |
| 20260509192438 | 58 | 296 | 8.7 | 25.2 | 0.09 | 0.09 | 0.09 | 72 | 1004.4 |
| 20260509192207 | 62 | 283 | 7.0 | 25.2 | 0.02 | 0.02 | 0.02 | 66 | 1004.8 |
| 20260509191437 | 66 | 281 | 5.2 | 13.9 | 0.01 | 0.01 | 0.01 | 62 | 1004.3 |
| 20260509190933 | 66 | 231 | 6.1 | 17.4 | 0.01 | 0.01 | 0.01 | 60 | 1003.6 |
| 20260509190432 | 66 | 281 | 7.0 | 17.4 | 0.01 | 0.01 | 0.01 | 60 | 1003.3 |
| 20260509190203 | 66 | 255 | 7.0 | 16.5 | 0.01 | 0.01 | 0.01 | 61 | 1003.4 |
| 20260509185704 | 67 | 258 | 7.0 | 20.0 | 0.01 | 0.01 | 0.01 | 61 | 1003.3 |
| 20260509184932 | 68 | 270 | 7.8 | 22.6 | 0.01 | 0.01 | 0.01 | 61 | 1003.2 |
| 20260509184432 | 69 | 269 | 5.2 | 22.6 | 0.00 | 0.00 | 0.00 | 53 | 1002.9 |
| 20260509183934 | 70 | 202 | 5.2 | 14.8 | 0.00 | 0.00 | 0.00 | 51 | 1003.1 |
| 20260509183432 | 70 | 229 | 6.1 | 20.0 | 0.00 | 0.00 | 0.00 | 51 | 1002.9 |
| 20260509182933 | 70 | 262 | 6.1 | 20.0 | 0.00 | 0.00 | 0.00 | 54 | 1003.1 |
| 20260509182431 | 70 | 219 | 7.8 | 16.5 | 0.00 | 0.00 | 0.00 | 52 | 1003.1 |
| 20260509181931 | 70 | 233 | 6.1 | 16.5 | 0.00 | 0.00 | 0.00 | 51 | 1003.4 |
| 20260509181702 | 70 | 213 | 4.3 | 13.9 | 0.00 | 0.00 | 0.00 | 51 | 1003.3 |
| 20260509180929 | 70 | 253 | 6.1 | 14.8 | 0.00 | 0.00 | 0.00 | 53 | 1003.2 |
| 20260509180429 | 70 | 203 | 6.1 | 14.8 | 0.00 | 0.00 | 0.00 | 52 | 1003.4 |